SCP
0 0 0 -0 -0 -0 -0 -0 0 0 0 0 0 0 0 0 0 0 0 0 0 0 0 0 0 0 0 0 0 0 0 0 0 0 0 0 0 0 0 0 0 0 0
0 0 -0 -0 -0 -0 -0 0 0 0 0 0 0 0 0 0 0 0 0 0 0 0 0 0 0 0 0 0 0 0 0 0 0 0 0 0 0 0 0 0 0 0 0
0 0 -0 -0 -0 -0 0 0 0 0 0 0 0 0 0 0 0 0 0 0 0 0 0 0 0 0 0 0 0 0 0 0 0 0 0 0 0 0 0 0 0 0 0
0 0 -0 -0 -0 0 0 0 0 0 0 0 0 0 0 0 0 0 0 0 0 0 0 0 0 0 0 0 0 0 0 0 0 0 0 0 0 0 0 0 0 0 0
0 0 0 0 0 0 0 0 0 0 0 0 0 0 0 0 0 0 0 0 0 0 0 0 0 0 0 0 0 0 0 0 0 0 0 0 0 0 0 0 0 0 0
0 0 0 0 0 0 0 0 0 0 0 0 0 0 0 0 0 0 0 0 0 0 0 0 0 0 0 0 0 0 0 0 0 0 0 0 0 0 0 0 0 0 0
0 0 0 0 0 0 0 0 0 0 0 0 0 0 0 0 0 0 0 0 0 -0 0 0 0 0 0 0 0 0 0 0 0 0 0 0 0 0 0 0 0 0 0
0 0 0 0 0 0 0 0 0 0 0 0 0 0 0 0 0 0 0 0 0 0 0 0 0 0 0 0 0 0 0 0 0 0 0 0 0 0 0 0 0 0 0
0 0 0 0 0 0 0 0 0 0 0 0 0 0 0 0 0 0 0 0 0 0 0 0 0 0 0 0 0 0 0 0 0 0 0 0 0 0 0 0 0 0 0
0 0 0 0 0 0 0 0 0 0 0 0 0 0 0 0 0 0 0 0 0 0 0 0 0 0 0 0 0 0 0 0 0 0 0 0 0 0 0 0 0 0 0
0 0 0 0 0 0 0 0 0 0 0 0 0 0 0 0 0 0 0 0 0 0 0 0 0 0 0 0 0 0 0 0 0 0 0 0 0 0 0 0 0 0 0
0 0 0 0 0 0 0 0 0 0 0 0 0 0 0 0 0 0 0 0 0 0 0 0 0 0 0 0 0 0 0 0 0 0 0 0 0 0 0 0 0 0 0
0 0 0 0 0 0 0 0 0 0 0 0 0 0 0 0 0 0 0 0 0 0 0 0 0 0 0 0 0 0 0 0 0 0 0 0 0 0 0 0 0 0 0
0 0 0 0 0 0 0 0 0 0 0 0 0 0 0 0 0 0 0 0 0 0 0 0 0 0 0 0 0 0 0 0 0 0 0 0 0 0 0 0 0 0 0
0 0 0 0 0 0 0 0 0 0 0 0 0 0 0 0 0 0 0 0 0 0 0 0 0 0 0 0 0 0 0 0 0 -0 -0 0 0 0 0 0 0 0 0
0 0 0 0 0 0 0 0 0 0 0 0 0 0 0 0 0 0 0 0 0 0 0 0 0 0 0 0 0 0 0 0 -0 -0 -0 0 0 0 0 0 0 0 0
0 0 0 0 0 0 0 0 0 0 0 0 0 0 0 0 0 0 0 0 0 0 0 0 0 0 0 0 0 0 0 -0 -0 -0 -0 0 0 0 0 0 0 0 0
0 0 0 0 0 0 0 0 0 0 0 0 0 0 0 0 0 0 0 0 0 0 0 0 0 0 0 0 0 0 0 -0 -0 -0 0 0 0 0 0 0 0 0 0
0 0 0 0 0 0 0 0 0 0 0 0 0 0 0 0 0 0 0 0 0 0 0 0 0 0 0 0 0 0 0 -0 -0 -0 0 0 0 0 0 0 0 0 0
0 0 0 0 0 0 0 0 0 0 0 0 0 0 0 0 0 0 0 0 0 0 0 0 0 0 0 0 0 0 0 -0 -0 -0 0 0 0 0 0 0 0 0 0
0 0 0 0 0 0 0 0 0 0 0 0 0 0 0 0 0 0 0 0 0 0 0 0 0 0 0 0 0 0 0 0 0 0 0 0 0 0 0 0 0 0 0
0 0 0 0 0 0 0 0 0 0 0 0 0 0 0 0 0 0 0 0 0 0 0 0 0 0 0 0 0 0 0 0 0 0 0 0 0 0 0 0 0 0 0
0 0 0 0 0 0 0 0 0 0 0 0 0 0 0 0 0 0 0 0 0 0 0 0 0 0 0 0 0 0 0 0 0 0 0 0 0 0 0 0 0 0 0
0 0 0 0 0 0 0 0 0 0 0 0 0 0 0 0 0 0 0 0 0 0 0 0 0 0 0 0 0 0 0 0 0 0 0 0 0 0 0 0 0 0 0
0 0 0 0 0 0 0 0 0 0 0 0 0 0 0 0 0 0 0 0 0 0 0 0 0 0 0 0 0 0 0 0 0 0 0 0 0 0 0 0 0 0 0
0 0 0 0 0 0 0 0 0 0 0 0 0 0 0 0 0 0 0 0 0 0 0 0 0 0 0 0 0 0 0 0 0 0 0 0 0 0 0 0 0 0 0
Wind_Speed
3 2 2 2 1 1 1 1 1 2 2 1 1 1 1 1 1 1 1 0 0 0 1 0 1 1 1 1 2 2 3 2 3 3 2 2 2 2 1 2 2 2 2
2 1 1 1 1 1 2 2 2 3 3 2 2 2 1 1 1 1 1 1 1 1 1 1 1 1 2 2 2 2 2 2 2 4 4 2 1 1 1 1 2 2 2
4 3 2 2 1 2 2 2 3 3 3 2 1 1 0 0 1 1 1 1 2 1 1 1 2 2 2 3 2 3 3 3 2 2 3 4 3 1 0 1 1 2 2
2 2 2 2 2 3 3 3 3 3 3 3 3 3 2 2 2 2 2 2 2 2 2 2 2 2 2 3 3 2 3 4 4 2 0 1 3 3 2 1 1 2 2
2 3 3 3 3 2 2 3 4 3 3 3 4 4 3 2 2 1 2 2 2 2 2 2 2 3 3 4 4 3 3 3 4 3 2 1 1 1 3 3 2 1 2
1 1 2 1 2 2 2 3 3 3 3 3 4 4 4 4 3 3 3 2 2 2 3 3 3 3 3 4 4 4 5 4 3 2 3 3 3 3 3 3 4 3 2
1 1 2 2 3 3 4 4 4 4 4 4 4 4 5 5 5 5 4 3 3 3 3 3 3 4 4 4 4 4 5 4 4 4 3 2 2 2 2 3 3 1 1
2 3 3 3 4 4 4 3 4 4 4 4 4 4 4 4 4 4 4 4 4 4 4 4 4 4 4 4 4 3 4 4 4 4 4 3 2 2 3 3 4 2 1
3 3 4 4 4 4 4 4 4 4 4 4 4 4 4 4 4 4 4 3 4 3 4 4 4 5 5 5 5 4 5 5 4 4 4 3 2 2 2 2 4 4 3
4 4 4 4 4 4 4 4 4 4 3 3 4 4 4 4 4 4 5 5 5 4 5 5 5 5 5 5 5 5 5 5 4 3 4 3 2 3 2 2 2 2 3
4 4 5 5 4 4 4 4 3 3 3 3 3 4 4 4 4 4 5 5 5 5 6 5 5 5 5 5 5 5 6 6 5 4 5 4 3 3 3 2 2 2 2
4 5 5 5 5 5 5 4 4 4 4 3 3 4 4 4 4 4 5 4 5 5 5 5 5 5 5 6 6 7 7 7 7 6 6 5 4 4 4 3 3 3 2
5 5 5 5 5 6 6 5 4 4 4 3 3 3 3 3 4 4 5 4 4 4 4 5 5 5 5 6 7 7 7 7 7 7 7 6 6 5 4 4 4 3 3
5 5 6 6 6 6 6 6 5 4 4 3 3 3 3 4 4 4 4 4 4 5 5 5 5 5 5 6 7 7 7 7 7 6 6 6 7 7 6 5 5 3 3
7 7 7 7 7 7 6 6 6 5 4 3 3 3 3 3 3 3 3 3 3 4 4 4 4 4 4 6 7 7 7 7 6 5 5 6 6 7 6 5 5 5 3
8 8 7 7 7 7 7 7 6 5 4 4 4 3 3 2 2 2 2 2 2 3 3 4 4 4 4 7 9 7 7 7 6 6 5 5 6 7 7 7 7 6 5
8 8 8 7 7 7 7 6 6 6 5 4 4 4 3 2 2 1 1 2 2 2 2 3 4 4 5 7 8 9 6 6 6 6 5 4 5 6 5 6 6 6 7
7 7 7 7 7 7 7 6 5 5 5 5 5 4 4 3 2 2 1 2 2 2 2 2 3 3 4 7 7 8 5 4 5 5 6 6 5 5 5 5 5 4 5
6 6 6 6 6 7 6 6 5 5 5 5 5 5 4 3 2 2 2 2 2 2 1 2 2 2 3 5 7 7 4 3 4 5 5 6 5 7 7 6 5 4 4
5 6 6 6 6 7 6 5 5 6 6 6 6 5 4 3 3 3 3 2 2 2 2 2 1 1 2 3 5 6 3 3 4 4 4 7 7 8 8 6 6 6 4
5 5 5 6 6 6 5 5 6 6 6 6 6 5 4 3 3 3 2 2 2 2 2 2 2 2 2 3 4 5 3 3 3 3 3 3 7 8 8 7 5 6 4
5 5 5 6 6 6 5 5 6 7 6 6 6 5 5 4 3 3 3 3 2 1 2 2 2 2 2 3 3 4 4 4 3 3 2 3 5 6 6 5 5 5 4
5 5 5 6 6 6 5 5 7 6 6 5 5 5 5 4 4 3 3 3 2 2 2 2 2 2 2 2 3 4 4 4 2 2 3 4 5 5 4 4 5 4 2
5 5 5 6 6 7 6 6 7 6 5 5 5 5 5 5 4 3 3 2 2 2 2 2 2 2 2 2 2 1 1 2 2 1 2 3 3 3 2 2 2 2 2
5 5 4 5 6 7 7 7 7 6 5 5 5 4 4 4 4 4 3 3 2 3 3 2 2 2 2 3 3 1 1 1 2 2 1 1 1 1 1 1 1 1 2
4 5 5 5 6 6 6 6 6 5 4 5 5 4 3 3 3 3 3 6 5 6 6 5 4 3 3 4 3 3 2 2 2 2 2 1 1 2 2 2 1 1 2
Wind_Direction
205 180 174 164 157 161 185 215 213 230 211 205 221 257 297 303 300 263 248 241 283 170 150 220 241 161 145 155 147 145 140 146 144 118 97 56 71 111 132 132 124 116 119
188 178 176 177 194 201 217 248 239 234 220 212 220 216 227 244 242 261 260 221 209 221 192 185 216 189 160 156 146 142 152 160 153 142 145 135 115 39 101 131 136 137 124
190 195 199 212 219 236 237 256 257 243 228 220 205 193 191 284 279 276 270 254 221 214 216 214 206 203 181 176 173 168 153 166 179 163 159 160 182 168 314 157 147 150 142
188 200 207 230 242 255 261 271 265 244 234 213 199 195 200 219 229 232 250 259 231 213 214 218 206 204 199 185 183 177 172 168 177 184 170 152 147 160 171 217 190 175 167
193 208 225 235 255 262 262 274 265 247 238 223 208 205 211 221 220 220 237 249 240 218 203 205 207 204 199 187 184 184 180 176 178 182 172 145 146 144 158 185 190 205 208
229 246 274 284 283 276 267 271 257 252 240 228 217 212 210 210 213 219 220 236 242 232 213 205 216 211 201 192 189 194 190 187 182 185 178 172 174 173 163 175 185 203 225
275 273 277 274 276 275 264 257 247 248 236 226 225 223 217 211 213 213 215 222 227 232 222 211 219 215 206 198 191 197 197 193 190 191 198 194 196 174 166 162 175 197 255
301 289 277 271 275 279 272 252 252 255 238 225 227 228 223 222 223 218 217 220 224 223 219 216 222 212 203 199 193 201 202 195 195 198 203 199 202 180 171 167 162 171 247
312 308 302 292 286 285 279 256 253 262 252 236 234 232 223 226 227 221 219 222 230 227 214 219 226 214 202 196 193 203 205 195 195 197 200 201 203 194 184 172 170 169 190
329 319 308 302 296 288 285 277 253 253 257 243 236 238 227 226 226 222 222 219 226 226 213 220 222 215 203 196 196 205 203 197 200 196 192 202 204 192 181 180 185 179 180
320 321 318 311 311 314 308 297 279 269 263 255 249 239 233 230 226 223 226 224 225 221 215 212 212 211 204 198 201 208 196 199 202 201 195 202 205 198 190 184 186 191 181
321 321 325 329 331 324 315 306 297 285 270 259 254 249 245 235 227 228 229 221 223 220 212 209 207 208 207 203 204 207 201 201 203 200 199 202 202 208 194 187 196 203 195
330 332 334 330 325 320 318 312 299 288 283 268 254 256 250 240 235 235 233 222 223 223 218 210 209 207 207 211 210 207 204 205 206 202 202 203 200 209 198 194 200 206 207
329 334 331 326 323 322 321 322 319 310 305 289 268 261 255 247 242 239 232 224 221 221 224 214 215 212 212 215 214 213 208 206 209 209 206 207 208 209 202 203 204 199 197
338 335 329 327 327 327 324 325 326 330 327 317 308 296 287 268 252 242 238 228 224 227 224 210 219 219 218 217 212 212 210 206 208 211 211 214 218 218 209 208 200 193 197
332 331 330 329 327 326 326 328 327 330 329 325 316 318 316 301 271 256 253 244 233 226 217 212 217 222 229 229 225 219 206 207 203 206 211 215 223 219 221 226 221 207 199
326 329 328 323 320 318 319 319 321 328 331 329 330 330 327 321 308 300 287 274 259 246 232 221 213 224 237 237 230 228 212 200 199 201 205 216 221 214 204 218 227 229 234
325 325 325 324 321 321 323 321 326 331 331 330 331 334 333 329 328 329 307 292 288 267 247 237 218 223 248 247 236 228 215 203 202 203 204 210 209 211 206 203 209 223 230
313 314 317 317 321 324 327 329 333 337 339 334 330 330 328 327 323 322 315 312 309 299 276 258 228 224 262 258 237 228 207 207 210 211 212 211 207 213 214 205 206 220 237
321 322 326 330 333 333 337 341 338 340 333 326 323 325 327 326 318 316 317 325 315 300 303 315 307 258 264 264 244 230 209 212 218 211 209 219 216 213 215 206 201 214 224
325 330 335 338 335 336 343 346 342 333 325 329 332 337 336 331 331 339 342 340 326 333 339 327 321 313 289 275 255 244 217 209 210 207 210 216 221 219 218 218 210 219 217
333 338 341 339 337 341 346 346 337 328 332 339 342 343 342 340 346 354 349 348 347 348 334 328 326 323 307 295 265 252 243 227 204 214 217 209 215 217 218 222 219 219 212
333 338 339 338 340 344 348 341 332 332 338 346 348 345 346 350 352 353 355 355 355 348 325 323 323 325 324 311 294 272 257 244 223 217 222 215 214 217 218 223 221 211 189
339 341 345 343 340 340 343 337 331 334 342 347 347 348 352 355 359 356 356 356 350 342 330 329 325 325 326 324 308 297 283 264 253 243 234 231 224 219 214 216 217 200 190
336 342 342 337 334 336 339 340 339 338 345 346 348 351 354 354 356 0 1 357 355 345 337 324 315 319 321 323 318 277 248 207 200 175 167 169 182 181 175 178 186 189 198
330 334 334 333 332 335 338 338 338 338 344 347 349 348 351 352 355 353 356 2 1 359 356 351 340 326 330 332 334 333 304 247 210 178 154 172 183 190 193 196 205 208 209